Location: Bidwell Hollow
(37.7387°N, 90.1707°W)
Time: 22:48:51
(UTC+00:00)

Altair - Pass Details

Date: 18 May 2026
Orbit: 1501 x 1682 km, 47.2° (Epoch: 6 June)

Event Time Altitude Azimuth Distance (km) Brightness Sun altitude
Exits shadow 09:30:52 17° 221° (SW) 3,318 8.6 -13.8°
Maximum altitude 09:38:57 71° 141° (SE) 1,717 7.7 -12.5°
Drops below altitude 10° 09:48:58 10° 60° (ENE) 3,934 11.2 -11.0°
Sets 09:52:11 0° 59° (ENE) 4,933 12.4 -10.4°
